GW7149 Weather Reports


Display with metric or nautical units.
time (UTC)temp
F
wind
direction
speed
MPH
gust
MPH
rain 1hr
in
rain 24hr
in
rain mn
in
humidity
%
barometer
mb
20260505002118 54 327 4.0 6.0 0.00 0.00 0.00 68 1010.1
20260505001615 54 265 3.0 4.0 0.00 0.00 0.00 67 1010.3
20260505001112 55 223 3.0 4.0 0.00 0.00 0.00 66 1010.2
20260505000609 55 319 4.0 6.0 0.00 0.00 0.00 66 1010.0
20260505000107 55 293 2.0 3.0 0.00 0.00 0.00 65 1010.0
20260504235603 55 296 2.0 2.0 0.00 0.00 0.00 64 1010.0
20260504235100 56 288 2.0 4.0 0.00 0.00 0.00 63 1009.9
20260504234557 56 8 3.0 4.0 0.00 0.00 0.00 61 1009.8
20260504234054 56 241 2.0 2.0 0.00 0.00 0.00 60 1009.7
20260504233549 56 301 3.0 4.0 0.00 0.00 0.00 59 1009.7
20260504233046 57 324 3.0 4.0 0.00 0.00 0.00 57 1009.7
20260504232543 57 245 2.0 4.0 0.00 0.00 0.00 56 1009.7
20260504232041 58 251 0.0 0.0 0.00 0.00 0.00 54 1009.6
20260504231537 58 282 2.0 2.0 0.00 0.00 0.00 54 1009.5
20260504231033 58 318 3.0 4.0 0.00 0.00 0.00 54 1009.5
20260504230530 58 282 3.0 3.0 0.00 0.00 0.00 53 1009.4
20260504230029 59 313 4.0 6.0 0.00 0.00 0.00 52 1009.6
20260504225526 59 315 6.0 7.0 0.00 0.00 0.00 52 1009.6
20260504225023 59 314 4.0 6.0 0.00 0.00 0.00 51 1009.5
20260504224519 59 299 1.0 4.0 0.00 0.00 0.00 51 1009.5
20260504224017 60 298 4.0 4.0 0.00 0.00 0.00 50 1009.4
20260504223513 60 268 2.0 3.0 0.00 0.00 0.00 50 1009.3
20260504223009 61 283 4.0 7.0 0.00 0.00 0.00 49 1009.1
20260504222506 61 230 3.0 6.0 0.00 0.00 0.00 48 1009.2
20260504222003 61 298 4.0 4.0 0.00 0.00 0.00 47 1009.2
20260504221500 62 271 1.0 7.0 0.00 0.00 0.00 46 1009.2
20260504220957 62 297 5.0 7.0 0.00 0.00 0.00 46 1009.2
20260504220454 63 206 2.0 4.0 0.00 0.00 0.00 45 1009.1
20260504215951 63 235 3.0 4.0 0.00 0.00 0.00 45 1009.2
20260504215447 63 280 2.0 4.0 0.00 0.00 0.00 45 1009.4
20260504214944 63 306 4.0 4.0 0.00 0.00 0.00 45 1009.4
20260504214440 64 301 3.0 6.0 0.00 0.00 0.00 44 1009.4
20260504213937 64 266 4.0 8.0 0.00 0.00 0.00 44 1009.1
20260504213433 64 35 2.0 3.0 0.00 0.00 0.00 43 1009.1
20260504212931 64 273 2.0 3.0 0.00 0.00 0.00 43 1009.1
20260504212426 64 220 3.0 6.0 0.00 0.00 0.00 43 1008.9
20260504211925 64 311 5.0 6.0 0.00 0.00 0.00 44 1009.1
20260504211420 64 297 3.0 7.0 0.00 0.00 0.00 44 1009.1
20260504210918 65 346 5.0 7.0 0.00 0.00 0.00 43 1009.3
20260504210415 65 240 2.0 9.0 0.00 0.00 0.00 44 1008.9
20260504205912 65 264 3.0 10.0 0.00 0.00 0.00 43 1009.0
20260504205410 65 359 3.0 7.0 0.00 0.00 0.00 43 1009.0
20260504204908 65 232 3.0 7.0 0.00 0.00 0.00 43 1009.0
20260504204406 65 299 4.0 9.0 0.00 0.00 0.00 43 1009.1
20260504203905 65 306 2.0 4.0 0.00 0.00 0.00 43 1008.9
20260504203401 65 212 2.0 7.0 0.00 0.00 0.00 43 1008.8
20260504202857 66 325 4.0 7.0 0.00 0.00 0.00 42 1008.9
20260504202354 66 297 2.0 4.0 0.00 0.00 0.00 42 1008.6
20260504201851 66 313 4.0 4.0 0.00 0.00 0.00 42 1008.9
20260504201348 66 326 3.0 4.0 0.00 0.00 0.00 41 1008.8
20260504200846 66 297 6.0 7.0 0.00 0.00 0.00 41 1008.8
20260504200342 66 218 3.0 9.0 0.00 0.00 0.00 41 1008.8
20260504195839 66 295 5.0 8.0 0.00 0.00 0.00 39 1008.9
20260504195334 67 282 3.0 11.0 0.00 0.00 0.00 38 1008.8
20260504194831 67 311 4.0 4.0 0.00 0.00 0.00 39 1009.1
20260504194327 67 291 3.0 6.0 0.00 0.00 0.00 38 1008.9
20260504193823 67 269 4.0 7.0 0.00 0.00 0.00 38 1008.6
20260504193321 67 253 4.0 7.0 0.00 0.00 0.00 37 1008.8
20260504192819 66 322 1.0 7.0 0.00 0.00 0.00 38 1008.9
20260504192317 66 280 6.0 8.0 0.00 0.00 0.00 38 1008.9
20260504191815 67 317 6.0 10.0 0.00 0.00 0.00 37 1008.8
20260504191313 67 324 4.0 9.0 0.00 0.00 0.00 36 1008.8
20260504190808 67 263 5.0 8.0 0.00 0.00 0.00 35 1008.8
20260504190304 70 289 3.0 9.0 0.00 0.00 0.00 33 1009.1
20260504185801 69 272 2.0 4.0 0.00 0.00 0.00 37 1008.9
20260504185258 69 280 4.0 7.0 0.00 0.00 0.00 35 1008.9
20260504184754 68 358 2.0 6.0 0.00 0.00 0.00 34 1008.9
20260504184250 68 26 4.0 6.0 0.00 0.00 0.00 34 1009.1
20260504183745 68 282 4.0 6.0 0.00 0.00 0.00 33 1009.2
20260504183243 68 358 6.0 8.0 0.00 0.00 0.00 33 1009.3
20260504182741 69 200 6.0 8.0 0.00 0.00 0.00 32 1009.1
20260504182238 68 223 4.0 6.0 0.00 0.00 0.00 33 1009.4
20260504181735 69 288 5.0 9.0 0.00 0.00 0.00 32 1009.4
20260504181233 68 255 2.0 4.0 0.00 0.00 0.00 33 1009.4
20260504180732 67 306 6.0 8.0 0.00 0.00 0.00 32 1009.3
20260504180230 68 264 3.0 9.0 0.00 0.00 0.00 32 1009.5
20260504175727 69 215 5.0 10.0 0.00 0.00 0.00 32 1009.6
20260504175224 67 256 4.0 6.0 0.00 0.00 0.00 33 1009.8
20260504174722 68 357 7.0 10.0 0.00 0.00 0.00 31 1009.7
20260504174220 67 331 2.0 8.0 0.00 0.00 0.00 32 1009.5
20260504173715 67 250 4.0 10.0 0.00 0.00 0.00 31 1009.5
20260504173213 67 294 6.0 14.0 0.00 0.00 0.00 31 1009.4
20260504172709 68 277 4.0 11.0 0.00 0.00 0.00 31 1009.8
20260504172206 68 253 7.0 10.0 0.00 0.00 0.00 31 1009.6
20260504171702 67 292 4.0 8.0 0.00 0.00 0.00 32 1009.6
20260504171159 67 300 8.0 13.0 0.00 0.00 0.00 32 1009.3
20260504170656 68 128 6.0 10.0 0.00 0.00 0.00 32 1009.7
20260504170154 68 256 3.0 10.0 0.00 0.00 0.00 31 1009.6
20260504160112 65 253 3.0 10.0 0.00 0.00 0.00 33 1010.5
20260504151039 65 306 2.0 8.0 0.00 0.00 0.00 36 1010.7
20260504150536 65 303 4.0 7.0 0.00 0.00 0.00 35 1010.4
20260504141002 62 223 4.0 7.0 0.00 0.00 0.00 39 1011.2
20260504140459 63 291 7.0 9.0 0.00 0.00 0.00 37 1011.2
20260504130423 59 316 5.0 7.0 0.00 0.00 0.00 43 1011.4
20260504110310 44 278 2.0 3.0 0.00 0.00 0.00 65 1011.6
20260504100228 42 301 2.0 3.0 0.00 0.00 0.00 68 1011.3
20260504081621 43 276 1.0 2.0 0.00 0.00 0.00 58 1010.8
20260504081117 43 269 1.0 2.0 0.00 0.00 0.00 60 1011.0
20260504080614 43 327 1.0 2.0 0.00 0.00 0.00 59 1011.1
20260504080111 43 286 1.0 2.0 0.00 0.00 0.00 60 1011.0
20260504050427 41 245 0.0 0.0 0.00 0.00 0.00 57 1010.7
20260504045924 41 257 0.0 0.0 0.00 0.00 0.00 55 1010.8
20260504045420 41 268 0.0 0.0 0.00 0.00 0.00 55 1011.0
20260504044916 42 254 0.0 0.0 0.00 0.00 0.00 56 1011.0
20260504044414 42 267 0.0 0.0 0.00 0.00 0.00 55 1011.0
20260504043911 41 270 0.0 0.0 0.00 0.00 0.00 55 1011.0
20260504043408 41 245 0.0 0.0 0.00 0.00 0.00 57 1011.1
20260504042905 41 222 0.0 0.0 0.00 0.00 0.00 57 1011.1
20260504042401 42 264 0.0 0.0 0.00 0.00 0.00 55 1011.0
20260504041858 42 252 0.0 0.0 0.00 0.00 0.00 55 1010.8
20260504041354 42 274 0.0 1.0 0.00 0.00 0.00 54 1010.9
20260504040850 42 290 0.0 1.0 0.00 0.00 0.00 55 1010.9
20260504040348 41 291 1.0 1.0 0.00 0.00 0.00 56 1010.7
20260504035843 41 302 1.0 1.0 0.00 0.00 0.00 56 1010.6
20260504035342 41 267 1.0 1.0 0.00 0.00 0.00 57 1010.7
20260504034838 41 303 1.0 2.0 0.00 0.00 0.00 56 1010.8
20260504034336 42 293 1.0 2.0 0.00 0.00 0.00 55 1010.9
20260504033832 42 287 1.0 2.0 0.00 0.00 0.00 54 1010.6
20260504033331 42 282 1.0 1.0 0.00 0.00 0.00 54 1010.6
20260504032827 42 286 0.0 2.0 0.00 0.00 0.00 54 1010.6
20260504032324 41 284 0.0 2.0 0.00 0.00 0.00 55 1010.7
20260504031821 42 264 1.0 1.0 0.00 0.00 0.00 58 1010.5
20260504031318 42 238 1.0 1.0 0.00 0.00 0.00 56 1010.6
20260504030814 42 288 1.0 2.0 0.00 0.00 0.00 57 1010.5
20260504030312 42 286 1.0 1.0 0.00 0.00 0.00 56 1010.6
20260504025808 41 272 1.0 1.0 0.00 0.00 0.00 58 1010.4
20260504025305 41 293 1.0 2.0 0.00 0.00 0.00 58 1010.4
20260504024801 40 285 2.0 2.0 0.00 0.00 0.00 60 1010.4
20260504024258 40 241 0.0 1.0 0.00 0.00 0.00 61 1010.3
20260504023755 40 269 0.0 1.0 0.00 0.00 0.00 61 1010.5
20260504023251 39 269 0.0 1.0 0.00 0.00 0.00 66 1010.2
20260504022747 39 239 0.0 0.0 0.00 0.00 0.00 67 1010.6
20260504022244 40 269 0.0 1.0 0.00 0.00 0.00 64 1010.2
20260504021741 40 232 0.0 0.0 0.00 0.00 0.00 62 1010.4
20260504021238 41 212 0.0 0.0 0.00 0.00 0.00 61 1010.2
20260504020735 41 216 0.0 0.0 0.00 0.00 0.00 59 1010.4
20260504020231 40 212 0.0 0.0 0.00 0.00 0.00 58 1010.2
20260504015728 40 220 0.0 0.0 0.00 0.00 0.00 60 1010.2
20260504015224 40 225 0.0 0.0 0.00 0.00 0.00 61 1010.2
20260504014720 41 227 0.0 0.0 0.00 0.00 0.00 60 1010.0
20260504014217 42 227 0.0 0.0 0.00 0.00 0.00 57 1010.1
20260504013715 42 227 0.0 0.0 0.00 0.00 0.00 54 1010.1
20260504013212 42 227 0.0 0.0 0.00 0.00 0.00 55 1010.0
20260504012708 41 230 0.0 0.0 0.00 0.00 0.00 56 1010.1
20260504012206 41 240 0.0 0.0 0.00 0.00 0.00 58 1010.0
20260504011703 42 241 0.0 0.0 0.00 0.00 0.00 60 1010.0
20260504011159 43 246 1.0 1.0 0.00 0.00 0.00 56 1009.8
20260504010655 43 176 0.0 0.0 0.00 0.00 0.00 54 1009.7
20260504010151 43 176 0.0 0.0 0.00 0.00 0.00 53 1009.6
20260504005648 43 176 0.0 0.0 0.00 0.00 0.00 53 1009.7
20260504005145 43 176 0.0 0.0 0.00 0.00 0.00 52 1009.2
20260504004643 43 176 0.0 0.0 0.00 0.00 0.00 53 1009.3
20260504004140 44 176 0.0 0.0 0.00 0.00 0.00 54 1009.3
20260504003636 44 176 0.0 0.0 0.00 0.00 0.00 51 1009.3
20260504003133 44 176 0.0 0.0 0.00 0.00 0.00 50 1009.2
20260504002630 44 176 0.0 0.0 0.00 0.00 0.00 51 1009.3